Flag for U.S.A. Weather past 2 weeks in Denver, Colorado, U.S.A.

Now
42 °F

Passing clouds.


Feels Like: 38 °F
Forecast: 35 / 64 °F
Wind: 6 mph from Southwest

Location: Buckley Air Force Base

Current Time: Apr 20, 2015 at 9:56:47 PM

Latest Report: Apr 20, 2015 at 8:58 PM


Visibility: 10 mi

Pressure: 29.94 "Hg

Humidity: 78%

Dew point: 35 °F

Location of DenverLocation

Historic Weather in Denver — Graph

°F

Denver temperature yesterday

Maximum temperature yesterday: 50 °F (at 3:58 PM)
Minimum temperature yesterday: 34 °F (at 6:58 AM)
Average temperature yesterday: 41 °F

Past Weeks' High & Low Weather Summary

 TemperatureHumidityPressure
High74 °F (Apr 14, 3:58 PM)100% (Apr 7, 3:58 AM)30.17 "Hg (Apr 7, 3:58 AM)
Low31 °F (Apr 20, 6:58 AM)8% (Apr 6, 12:58 PM)29.39 "Hg (Apr 8, 1:58 PM)
Average47 °F56%29.86 "Hg
* Reported Apr 5 7:58 PM — Apr 20 7:59 PM, Denver, Weather by CustomWeather, © 2015

Note: Actual official high and low records may vary slightly from our data, if they occured in-between our weather recording intervals... More about our weather records

Advertising

Denver weather history for previous 24 hours

 ConditionsComfort  
Time TempWeatherWind HumidityBarometerVisibility
7:59 PM
Mon, Apr 20
46 °FPartly sunny.3 mph62%29.96 "Hg10 mi
7:58 PM46 °FPartly sunny.6 mph63%29.92 "Hg10 mi
5:58 PM52 °FBroken clouds.8 mph43%29.88 "Hg10 mi
3:58 PM54 °FScattered clouds.8 mph39%29.84 "Hg10 mi
2:58 PM53 °FScattered clouds.6 mph42%29.86 "Hg10 mi
1:58 PM51 °FBroken clouds.6 mph42%29.90 "Hg10 mi
12:58 PM49 °FScattered clouds.6 mph45%29.90 "Hg10 mi
11:58 AM48 °FScattered clouds.No wind44%29.93 "Hg10 mi
10:58 AM44 °FScattered clouds.3 mph52%29.95 "Hg10 mi
9:58 AM41 °FPassing clouds.6 mph58%29.98 "Hg10 mi
8:58 AM37 °FPassing clouds.5 mph69%30.01 "Hg10 mi
7:58 AM34 °FScattered clouds.2 mph74%30.03 "Hg10 mi
6:58 AM31 °FPartly cloudy.1 mph90%30.04 "Hg10 mi
5:58 AM32 °FPassing clouds.5 mph84%30.03 "Hg10 mi
4:58 AM33 °FOvercast.7 mph81%30.00 "Hg10 mi
3:58 AM34 °FOvercast.3 mph73%30.00 "Hg10 mi
2:58 AM34 °FOvercast.3 mph72%29.99 "Hg10 mi
1:58 AM33 °FPassing clouds.3 mph71%30.03 "Hg10 mi
12:58 AM37 °FPassing clouds.No wind57%30.00 "Hg10 mi
11:58 PM
Sun, Apr 19
38 °FPartly cloudy.2 mph53%30.01 "Hg10 mi
10:58 PM40 °FMostly cloudy.No wind53%30.02 "Hg10 mi
9:58 PM39 °FMostly cloudy.No wind53%30.03 "Hg10 mi
Weather by CustomWeather, © 2015

See weather overviewHow to use our weather pages